Location: Unspecified
(40.7945°N, 0.0000°E)
Time: 03:22:11
(UTC+00:00)

Altair - Pass Details

Date: 23 January 2021
Orbit: 1501 x 1682 km, 47.2° (Epoch: 01 March)

Event Time Altitude Azimuth Distance (km) Brightness Sun altitude
Rises 05:21:53 0° 234° (SW) 4,849 - -21.8°
Reaches altitude 10° 05:24:58 10° 233° (SW) 3,884 - -21.2°
Exits shadow 05:26:02 14° 233° (SW) 3,556 9.0 -21.0°
Maximum altitude 05:34:59 81° 148° (SSE) 1,696 7.7 -19.3°
Drops below altitude 10° 05:45:11 10° 63° (ENE) 3,947 10.4 -17.4°
Sets 05:48:21 0° 63° (ENE) 4,931 11.0 -16.9°
